World > North America > United States > Minnesota > Atwater

Atwater, MN Hourly Weather Conditions

Feedback E-mail the Weather

Quick WX

Atwater, MN Weather Maps

°F °C°F °C
Atwater Weather Map
UTC Time: 11/27/2022, 19:24
Your Time:

Atwater, MN Regional Weather

Expires:202211272000;;904342
ASUS43 KMPX 271910
RWRMN 
WEATHER ROUNDUP FOR MINNESOTA
NATIONAL WEATHER SERVICE TWIN CITIES/CHANHASSEN MN
100 PM CST SUN NOV 27 2022


NOTE: "FAIR" INDICATES FEW OR NO CLOUDS BELOW 12,000 FEET WITH NO
SIGNIFICANT WEATHER AND/OR OBSTRUCTIONS TO VISIBILITY. N/A MEANS
CURRENT SKY AND/OR WEATHER CONDITIONS ARE NOT AVAILABLE.


MNZ029>031-032-039>041-046>048-054>057-064-272000-
   West Central Minnesota   
  
CITY           SKY/WX    TMP DP  RH WIND       PRES   REMARKS
FERGUS FALLS   SUNNY     32  28  86 CALM      29.84F                  
WHEATON          N/A     34  27  75 CALM      29.88F                  
MORRIS           N/A     32  27  80 NW6       29.87F WCI  26          
ALEXANDRIA     SUNNY     31  26  82 CALM      29.85F                  
ELBOW LAKE     PTSUNNY   31  29  94 CALM      29.86F                  
WADENA         SUNNY     34  27  75 CALM      29.83F                  
GLENWOOD       SUNNY     34  28  80 W3        29.84F                  
APPLETON       MOSUNNY   36  27  69 N6        29.88F                  
BENSON         PTSUNNY   34  27  75 NE7       29.87F WCI  28          
ORTONVILLE       N/A     34  27  75 CALM      29.86F                  
MADISON        SUNNY     37  28  70 NW6       29.89F                  
WILLMAR        FAIR      36  30  80 NW12      29.89S                  
$$

SKY/WX - Weather  TMP - Temperature  DP - Dew Point  RH - Humidity
WIND - Wind Direction/Speed PRES - Barometric Pressure VSB - Visibility
WCI - Wind Chill Index E13G22 Wind - East Wind 13 mph/Gusts of 22 mph

Trending Headlines

Trending Entertainment Headlines

Atwater Radar Loop

Use the map search tool if you want to place a location marker on the radar map...

Atwater Quick Facts

National Two Day Weather Forecast


E-mail the Atwater Weather Forecast

Voice your opinion or tell us about page issues...